Lawrence, MA

5:20 AM EST on December 17, 2017 (GMT -0500)
Lawrence Municipal

Weather History for KLWM - October, 2013

Change the Weather History Date:

Monday, October 28, 2013

  Actual Average Record
Temperature  
Mean Temperature 47 °F -  
Max Temperature 60 °F 58 °F 79 °F (1971)
Min Temperature 35 °F 37 °F 19 °F (1936)
Degree Days  
Heating Degree Days 18    
Moisture  
Dew Point 27 °F    
Average Humidity 53    
Maximum Humidity 76    
Minimum Humidity 32    
Precipitation  
Precipitation 0.00 in - - ()
Sea Level Pressure  
Sea Level Pressure 30.18 in    
Wind  
Wind Speed 7 mph (WSW)    
Max Wind Speed 22 mph    
Max Gust Speed 29 mph    
Visibility 10 miles    
Events      
Averages and records for this station are not official NWS values.
T = Trace of Precipitation, MM = Missing Value Source: NWS Daily Summary

Daily Weather History Graph

Daily Weather History Graph

Search for Another Location

Airport or City:

Trip Planner

Search our weather history database for the weather conditions in past years. The results will help you decide how hot, cold, wet, or windy it might be!

Date:

Astronomy

Oct. 28, 2013 Rise Set
Actual Time 7:13 AM EDT 5:42 PM EDT
Civil Twilight 6:44 AM EDT 6:11 PM EDT
Nautical Twilight 6:11 AM EDT 6:44 PM EDT
Astronomical Twilight 5:38 AM EDT 7:17 PM EDT
Moon 12:55 AM EDT (10/28) 2:29 PM EDT (10/28)
Length of Visible Light 11h 26m
Length of Day
10h 28m
Waning Crescent, 34% of the Moon is Illuminated
Oct 28
Waning Crescent
Nov 3
New
Nov 10
First Quarter
Nov 17
Full
Nov 25
Last Quarter

Hourly Weather History & Observations

Time (EDT) Temp. Windchill Dew Point Humidity Pressure Visibility Wind Dir Wind Speed Gust Speed Precip Events Conditions
12:54 AM 37.9 °F 33.5 °F 28.0 °F 68% 30.09 in 10.0 mi SW 5.8 mph - N/A   Clear
1:54 AM 39.9 °F 36.7 °F 28.0 °F 63% 30.09 in 10.0 mi SSW 4.6 mph - N/A   Clear
2:54 AM 37.0 °F 33.3 °F 28.0 °F 70% 30.09 in 10.0 mi SSW 4.6 mph - N/A   Clear
3:54 AM 35.1 °F - 27.0 °F 72% 30.09 in 10.0 mi Calm Calm - N/A   Clear
4:54 AM 35.1 °F 32.2 °F 28.0 °F 76% 30.11 in 10.0 mi SSW 3.5 mph - N/A   Clear
5:54 AM 35.1 °F 30.1 °F 28.0 °F 76% 30.11 in 10.0 mi South 5.8 mph - N/A   Clear
6:54 AM 35.1 °F 32.2 °F 28.0 °F 76% 30.12 in 10.0 mi SSW 3.5 mph - N/A   Clear
7:54 AM 37.0 °F 32.4 °F 28.9 °F 73% 30.13 in 10.0 mi WSW 5.8 mph - N/A   Clear
8:54 AM 41.0 °F 38.0 °F 30.9 °F 67% 30.14 in 10.0 mi SSW 4.6 mph - N/A   Clear
9:54 AM 48.0 °F - 30.9 °F 52% 30.14 in 10.0 mi SSW 8.1 mph - N/A   Clear
10:54 AM 54.0 °F - 30.0 °F 40% 30.12 in 10.0 mi WSW 16.1 mph 19.6 mph N/A   Partly Cloudy
11:54 AM 55.9 °F - 30.0 °F 37% 30.11 in 10.0 mi SW 17.3 mph 27.6 mph N/A   Clear
12:54 PM 59.0 °F - 30.0 °F 33% 30.09 in 10.0 mi West 17.3 mph 23.0 mph N/A   Clear
1:54 PM 55.9 °F - 30.0 °F 37% 30.10 in 10.0 mi WSW 16.1 mph 24.2 mph N/A   Mostly Cloudy
2:54 PM 57.9 °F - 30.0 °F 35% 30.11 in 10.0 mi West 21.9 mph 28.8 mph N/A   Overcast
3:54 PM 57.9 °F - 28.0 °F 32% 30.14 in 10.0 mi NW 12.7 mph 21.9 mph N/A   Overcast
4:54 PM 54.0 °F - 27.0 °F 35% 30.18 in 10.0 mi WNW 12.7 mph 18.4 mph N/A   Overcast
5:54 PM 48.9 °F - 28.9 °F 46% 30.23 in 10.0 mi North 9.2 mph - N/A   Scattered Clouds
6:54 PM 46.0 °F 43.9 °F 28.0 °F 50% 30.28 in 10.0 mi North 4.6 mph - N/A   Clear
7:54 PM 45.0 °F 42.6 °F 27.0 °F 49% 30.31 in 10.0 mi NNW 4.6 mph - N/A   Clear
8:54 PM 44.1 °F 40.1 °F 21.9 °F 42% 30.33 in 10.0 mi NNW 6.9 mph - N/A   Clear
9:54 PM 41.0 °F 39.0 °F 19.9 °F 43% 30.35 in 10.0 mi NNW 3.5 mph - N/A   Clear
10:54 PM 39.0 °F - 21.0 °F 49% 30.37 in 10.0 mi Calm Calm - N/A   Clear
11:54 PM 36.0 °F - 19.9 °F 52% 30.37 in 10.0 mi Calm Calm - N/A   Clear